• In Spain
  • List of Countries
  • For 7 days
  • Water Temperature
  • Satellite Maps
  • Weather Map
  • Weather Widgets
  • user-avatar
    Login

    Hourly Weather Batina

    Today, 22 October, Monday

    Time Temperature Precipitation Wind Pressure Humidity
    00:00 +16°C° 0 mm 1 mps 672 mmHg 63%
    01:00 +16°C° 0 mm 1 mps 672 mmHg 63%
    02:00 +16°C° 0 mm 1 mps 671 mmHg 64%
    03:00 +15°C° 0 mm 1 mps 671 mmHg 64%
    04:00 +15°C° 0 mm 1 mps 671 mmHg 65%
    05:00 +15°C° 0 mm 1 mps 671 mmHg 66%
    06:00 +14°C° 0 mm 1 mps 671 mmHg 68%
    07:00 +16°C° 0 mm 1 mps 671 mmHg 62%
    08:00 +19°C° 0 mm 1 mps 672 mmHg 57%
    09:00 +19°C° 0 mm 2 mps 673 mmHg 51%
    10:00 +20°C° 0 mm 2 mps 673 mmHg 47%
    11:00 +21°C° 0 mm 3 mps 673 mmHg 42%
    12:00 +22°C° 0 mm 4 mps 673 mmHg 37%
    13:00 +21°C° 0 mm 5 mps 672 mmHg 37%
    14:00 +21°C° 0 mm 6 mps 672 mmHg 37%
    15:00 +21°C° 0 mm 6 mps 672 mmHg 37%
    16:00 +20°C° 0 mm 6 mps 672 mmHg 40%
    17:00 +19°C° 0 mm 5 mps 672 mmHg 43%
    18:00 +17°C° 0 mm 4 mps 672 mmHg 46%
    19:00 +17°C° 0 mm 4 mps 672 mmHg 52%
    20:00 +15°C° 0 mm 5 mps 672 mmHg 57%
    21:00 +14°C° 0 mm 5 mps 673 mmHg 62%
    22:00 +14°C° 0 mm 5 mps 673 mmHg 66%
    23:00 +13°C° 0 mm 5 mps 673 mmHg 70%

    Tomorrow, 23 October, Tuesday

    Time Temperature Precipitation Wind Pressure Humidity
    00:00 +13°C° 0 mm 5 mps 673 mmHg 74%
    01:00 +12°C° 0 mm 5 mps 672 mmHg 75%
    02:00 +11°C° 0 mm 4 mps 672 mmHg 77%
    03:00 +11°C° 0 mm 4 mps 672 mmHg 78%
    04:00 +10°C° 0 mm 4 mps 672 mmHg 78%
    05:00 +10°C° 0 mm 4 mps 672 mmHg 79%
    06:00 +10°C° 0 mm 3 mps 672 mmHg 79%
    07:00 +11°C° 0 mm 4 mps 673 mmHg 73%
    08:00 +12°C° 0 mm 4 mps 674 mmHg 68%
    09:00 +13°C° 0 mm 4 mps 674 mmHg 62%
    10:00 +13°C° 0 mm 4 mps 674 mmHg 59%
    11:00 +14°C° 0 mm 4 mps 675 mmHg 56%
    12:00 +15°C° 0 mm 4 mps 675 mmHg 52%
    13:00 +15°C° 0 mm 4 mps 674 mmHg 52%
    14:00 +15°C° 0 mm 4 mps 674 mmHg 52%
    15:00 +17°C° 0 mm 4 mps 674 mmHg 52%
    16:00 +15°C° 0 mm 4 mps 674 mmHg 57%
    17:00 +14°C° 0 mm 4 mps 674 mmHg 61%
    18:00 +14°C° 0 mm 3 mps 674 mmHg 65%
    19:00 +13°C° 0 mm 3 mps 674 mmHg 68%
    20:00 +14°C° 0 mm 2 mps 674 mmHg 71%
    21:00 +13°C° 0 mm 2 mps 675 mmHg 74%
    22:00 +13°C° 0 mm 2 mps 674 mmHg 76%
    23:00 +12°C° 0 mm 2 mps 674 mmHg 78%

    Day after tomorrow, 24 October, Wednesday

    Time Temperature Precipitation Wind Pressure Humidity
    00:00 +12°C° 0 mm 2 mps 674 mmHg 80%
    01:00 +10°C° 0 mm 2 mps 673 mmHg 80%
    02:00 +10°C° 0 mm 2 mps 673 mmHg 80%
    03:00 +9°C° 0 mm 2 mps 673 mmHg 81%
    04:00 +9°C° 0 mm 2 mps 673 mmHg 81%
    05:00 +9°C° 0 mm 2 mps 673 mmHg 81%
    06:00 +9°C° 0 mm 2 mps 673 mmHg 82%
    07:00 +10°C° 0 mm 2 mps 674 mmHg 74%
    08:00 +12°C° 0 mm 2 mps 674 mmHg 66%
    09:00 +13°C° 0 mm 3 mps 675 mmHg 59%
    10:00 +14°C° 0 mm 3 mps 675 mmHg 54%
    11:00 +16°C° 0 mm 3 mps 675 mmHg 50%
    12:00 +17°C° 0 mm 3 mps 675 mmHg 45%
    13:00 +17°C° 0 mm 3 mps 674 mmHg 45%
    14:00 +17°C° 0 mm 3 mps 674 mmHg 45%
    15:00 +17°C° 0 mm 3 mps 674 mmHg 45%
    16:00 +16°C° 0 mm 3 mps 674 mmHg 50%
    17:00 +16°C° 0 mm 2 mps 674 mmHg 55%
    18:00 +15°C° 0 mm 2 mps 673 mmHg 60%
    19:00 +14°C° 0 mm 2 mps 674 mmHg 64%
    20:00 +14°C° 0 mm 1 mps 674 mmHg 69%
    21:00 +13°C° 0 mm 1 mps 674 mmHg 73%
    22:00 +13°C° 0 mm 1 mps 674 mmHg 75%
    23:00 +12°C° 0 mm 1 mps 673 mmHg 77%

    25 October, Thursday

    Time Temperature Precipitation Wind Pressure Humidity
    00:00 +11°C° 0 mm 0 mps 673 mmHg 79%
    01:00 +10°C° 0 mm 0 mps 673 mmHg 79%
    02:00 +10°C° 0 mm 0 mps 673 mmHg 79%
    03:00 +10°C° 0 mm 0 mps 673 mmHg 80%
    04:00 +9°C° 0 mm 0 mps 673 mmHg 78%
    05:00 +9°C° 0 mm 0 mps 673 mmHg 77%
    06:00 +9°C° 0 mm 0 mps 673 mmHg 75%
    07:00 +12°C° 0 mm 1 mps 673 mmHg 65%
    08:00 +14°C° 0 mm 1 mps 674 mmHg 56%
    09:00 +16°C° 0 mm 1 mps 675 mmHg 46%
    10:00 +18°C° 0 mm 1 mps 675 mmHg 42%
    11:00 +18°C° 0 mm 2 mps 675 mmHg 38%
    12:00 +19°C° 0 mm 2 mps 675 mmHg 34%
    13:00 +19°C° 0 mm 2 mps 675 mmHg 33%
    14:00 +19°C° 0 mm 2 mps 675 mmHg 33%
    15:00 +19°C° 0 mm 2 mps 674 mmHg 33%
    16:00 +18°C° 0 mm 2 mps 674 mmHg 37%
    17:00 +18°C° 0 mm 1 mps 674 mmHg 42%
    18:00 +16°C° 0 mm 1 mps 674 mmHg 47%
    19:00 +16°C° 0 mm 1 mps 674 mmHg 49%
    20:00 +15°C° 0 mm 2 mps 674 mmHg 51%
    21:00 +15°C° 0 mm 2 mps 674 mmHg 53%
    22:00 +14°C° 0 mm 2 mps 674 mmHg 55%
    23:00 +14°C° 0 mm 2 mps 673 mmHg 56%

    26 October, Friday

    Time Temperature Precipitation Wind Pressure Humidity
    00:00 +13°C° 0 mm 2 mps 673 mmHg 58%
    01:00 +13°C° 0 mm 2 mps 673 mmHg 58%
    02:00 +13°C° 0 mm 2 mps 673 mmHg 58%
    03:00 +12°C° 0 mm 2 mps 672 mmHg 59%
    04:00 +12°C° 0 mm 2 mps 672 mmHg 59%
    05:00 +12°C° 0 mm 2 mps 672 mmHg 60%
    06:00 +10°C° 0 mm 2 mps 672 mmHg 61%
    07:00 +12°C° 0 mm 3 mps 672 mmHg 54%
    08:00 +14°C° 0 mm 3 mps 673 mmHg 48%
    09:00 +15°C° 0 mm 4 mps 674 mmHg 41%
    10:00 +17°C° 0 mm 4 mps 673 mmHg 38%
    11:00 +17°C° 0 mm 5 mps 673 mmHg 35%
    12:00 +19°C° 0 mm 5 mps 673 mmHg 33%
    13:00 +19°C° 0 mm 5 mps 673 mmHg 33%
    14:00 +19°C° 0 mm 5 mps 672 mmHg 33%
    15:00 +19°C° 0 mm 5 mps 672 mmHg 33%
    16:00 +18°C° 0 mm 4 mps 672 mmHg 38%
    17:00 +15°C° 0 mm 4 mps 671 mmHg 42%
    18:00 +14°C° 0 mm 3 mps 671 mmHg 46%
    19:00 +14°C° 0 mm 3 mps 671 mmHg 48%
    20:00 +13°C° 0 mm 3 mps 671 mmHg 50%
    21:00 +13°C° 0 mm 3 mps 671 mmHg 52%
    22:00 +12°C° 0 mm 3 mps 671 mmHg 53%
    23:00 +12°C° 0 mm 3 mps 670 mmHg 54%

    27 October, Saturday

    Time Temperature Precipitation Wind Pressure Humidity
    00:00 +12°C° 0 mm 3 mps 670 mmHg 55%
    01:00 +12°C° 0 mm 3 mps 670 mmHg 56%
    02:00 +12°C° 0 mm 3 mps 669 mmHg 57%
    03:00 +11°C° 0 mm 3 mps 669 mmHg 59%
    04:00 +11°C° 0 mm 3 mps 669 mmHg 60%
    05:00 +11°C° 0 mm 3 mps 669 mmHg 61%
    06:00 +11°C° 0 mm 3 mps 669 mmHg 62%
    07:00 +13°C° 0 mm 4 mps 669 mmHg 58%
    08:00 +14°C° 0 mm 6 mps 669 mmHg 53%
    09:00 +16°C° 0 mm 7 mps 670 mmHg 49%
    10:00 +16°C° 0 mm 7 mps 669 mmHg 49%
    11:00 +17°C° 0 mm 8 mps 669 mmHg 49%
    12:00 +17°C° 0 mm 8 mps 668 mmHg 48%
    13:00 +17°C° 0 mm 8 mps 668 mmHg 49%
    14:00 +17°C° 0 mm 8 mps 667 mmHg 49%
    15:00 +17°C° 0 mm 8 mps 666 mmHg 50%
    16:00 +16°C° 0 mm 7 mps 666 mmHg 54%
    17:00 +16°C° 0 mm 6 mps 666 mmHg 57%
    18:00 +15°C° 0 mm 5 mps 666 mmHg 61%
    19:00 +15°C° 0 mm 5 mps 666 mmHg 61%
    20:00 +15°C° 0 mm 6 mps 666 mmHg 60%
    21:00 +15°C° 0 mm 7 mps 666 mmHg 60%
    22:00 +15°C° 0 mm 6 mps 666 mmHg 62%
    23:00 +14°C° 0 mm 5 mps 665 mmHg 65%

    28 October, Sunday

    Time Temperature Precipitation Wind Pressure Humidity
    00:00 +14°C° 0 mm 4 mps 665 mmHg 67%
    01:00 +13°C° 0 mm 3 mps 665 mmHg 69%
    02:00 +14°C° 0 mm 2 mps 664 mmHg 71%
    03:00 +13°C° 0 mm 2 mps 664 mmHg 74%
    04:00 +13°C° 0 mm 2 mps 664 mmHg 74%
    05:00 +13°C° 0 mm 2 mps 664 mmHg 74%
    06:00 +12°C° 0 mm 1 mps 664 mmHg 75%
    07:00 +13°C° 0 mm 2 mps 664 mmHg 67%
    08:00 +15°C° 0 mm 2 mps 665 mmHg 59%
    09:00 +16°C° 0 mm 2 mps 666 mmHg 51%
    10:00 +16°C° 0.3 mm 3 mps 665 mmHg 52%
    11:00 +15°C° 0.3 mm 4 mps 665 mmHg 54%
    12:00 +15°C° 0.3 mm 5 mps 664 mmHg 56%
    13:00 +15°C° 0.3 mm 5 mps 664 mmHg 57%
    14:00 +14°C° 0.3 mm 5 mps 664 mmHg 57%
    15:00 +14°C° 0.3 mm 5 mps 664 mmHg 58%
    16:00 +14°C° 0.5 mm 4 mps 664 mmHg 62%
    17:00 +13°C° 0.5 mm 4 mps 664 mmHg 65%
    18:00 +12°C° 0.5 mm 4 mps 664 mmHg 69%
    19:00 +12°C° 0.1 mm 3 mps 664 mmHg 69%
    20:00 +13°C° 0.1 mm 2 mps 664 mmHg 69%
    21:00 +13°C° 0.1 mm 2 mps 664 mmHg 69%
    22:00 +13°C° 0 mm 1 mps 663 mmHg 69%
    23:00 +13°C° 0 mm 1 mps 663 mmHg 69%
    Show more